[[{"header":{"parameterUnit":"m.s-1","parameterCategory":1,"la1":30.2991,"la2":30.254,"lo1":-89.0895,"lo2":-89.0444,"dy":0.0017,"dx":0.0017,"nx":28,"ny":28,"refTime":"2025-09-07T21:00:00:Z","depth":0,"parameterNumber":2,"parameterNumberName":"U-component_of_WINDS"},"data":[0,0,0,0,0,0,0,0,0,0,0,0,0,0,0,0,0,0,0,0,0,0,0,0,0,0,0,0,0,0,0,0,0,0,0,0,0,0,0,0,0,0,0,0,0,0,0,0,0,0,0,0,0,0,0,0,0,0,-1.4596,-1.4596,0,-1.4658,-1.4659,-1.4659,-1.4668,-1.4667,-1.4667,-1.4666,-1.4729,-1.4731,-1.4733,0,0,0,0,0,0,0,0,0,0,0,0,0,-1.4481,-1.4483,-1.4595,-1.4596,-1.4597,-1.4658,-1.4659,-1.466,-1.4668,-1.4667,-1.4667,-1.4666,-1.4728,-1.4731,-1.4733,0,0,0,0,0,0,0,0,0,0,0,0,0,-1.4536,-1.4484,-1.4595,-1.4609,-1.461,-1.4658,-1.4659,-1.466,-1.4668,-1.4667,-1.4666,-1.4666,-1.4727,-1.473,-1.4734,-1.4771,0,0,-1.4744,-1.4745,0,0,0,0,0,0,0,0,-1.4533,-1.454,-1.4606,-1.4608,-1.461,-1.4654,-1.4641,-1.4697,-1.4668,-1.4646,-1.4666,-1.4665,-1.4705,-1.471,-1.4723,-1.4774,-1.4777,-1.4744,-1.4746,-1.4747,-1.4748,0,0,0,0,0,0,0,-1.4529,-1.4538,-1.462,-1.4607,-1.4609,-1.4611,-1.4618,-1.4652,-1.4679,-1.4648,-1.4649,-1.4656,-1.4705,-1.472,-1.4725,-1.4778,-1.4744,-1.4747,-1.4749,-1.475,-1.4863,-1.4864,0,0,0,0,0,0,-1.4523,-1.4534,-1.4618,-1.4622,-1.4569,-1.4614,-1.4621,-1.4641,-1.4679,-1.4684,-1.4657,-1.4656,-1.4715,-1.4721,-1.4727,-1.4774,-1.4747,-1.475,-1.4752,-1.4862,-1.4863,-1.4864,0,0,0,0,0,0,-1.4521,-1.4531,-1.4616,-1.4578,-1.4589,-1.4616,-1.4639,-1.4643,-1.4657,-1.4686,-1.4691,-1.4667,-1.4714,-1.4722,-1.476,-1.4776,-1.4752,-1.4755,-1.4861,-1.4862,-1.4864,-1.4868,0,0,0,0,0,0,-1.4517,-1.453,-1.4545,-1.4579,-1.4591,-1.4649,-1.464,-1.4644,-1.4663,-1.4663,-1.4696,-1.4701,-1.4714,-1.4755,-1.4764,-1.478,-1.4757,-1.4859,-1.4861,-1.4863,-1.4867,-1.487,-1.4872,0,0,0,0,0,-1.4513,-1.4543,-1.4546,-1.4556,-1.4611,-1.465,-1.4657,-1.4672,-1.4664,-1.468,-1.4698,-1.47,-1.4773,-1.4759,-1.4769,-1.4786,-1.4858,-1.4861,-1.4863,-1.4865,-1.4869,-1.4872,0,0,0,0,0,0,-1.451,-1.4548,-1.4551,-1.4593,-1.4618,-1.4651,-1.4671,-1.4675,-1.4702,-1.4701,-1.4718,-1.4725,-1.4763,-1.4778,-1.4762,-1.4825,-1.4815,-1.4819,-1.4814,-1.4817,-1.482,-1.4816,-1.476,0,0,0,0,0,-1.4514,-1.4543,-1.4574,-1.4608,-1.4621,-1.4644,-1.4661,-1.467,-1.4697,-1.4707,-1.4728,-1.4753,-1.4782,-1.48,-1.4828,-1.4869,-1.4876,-1.4885,-1.4888,-1.489,-1.4894,-1.4916,-1.4921,-1.4872,-1.4872,-1.4872,0,0,-1.4523,-1.4548,-1.4565,-1.4608,-1.4629,-1.4658,-1.4652,-1.4683,-1.4705,-1.4712,-1.4749,-1.4765,-1.4794,-1.4834,-1.4852,-1.4848,-1.4909,-1.4893,-1.4895,-1.4897,-1.4919,-1.4924,-1.4928,-1.4873,-1.4873,-1.4873,0,0,-1.4555,-1.4576,-1.4607,-1.4628,-1.4659,-1.4674,-1.4681,-1.4713,-1.4724,-1.4762,-1.4768,-1.4793,-1.4842,-1.4862,-1.4879,-1.4917,-1.492,-1.4926,-1.494,-1.4962,-1.4966,-1.4969,-1.4983,-1.4988,-1.4929,-1.4929,-1.4929,0,-1.4562,-1.4607,-1.4622,-1.4653,-1.4672,-1.4679,-1.471,-1.4729,-1.4768,-1.478,-1.4775,-1.4836,-1.4856,-1.4901,-1.491,-1.4923,-1.4932,-1.4922,-1.4964,-1.4968,-1.4971,-1.4985,-1.499,-1.493,-1.493,-1.4929,-1.4929,0,-1.4614,-1.4644,-1.4665,-1.4703,-1.4724,-1.4755,-1.4774,-1.4793,-1.48,-1.4815,-1.4854,-1.4878,-1.4911,-1.4921,-1.4929,-1.4967,-1.4963,-1.4961,-1.4951,-1.4976,-1.4989,-1.4994,-1.493,-1.493,-1.493,-1.493,0,0,-1.4646,-1.4691,-1.4699,-1.4716,-1.4751,-1.4774,-1.4805,-1.4837,-1.4853,-1.4879,-1.4905,-1.4946,-1.4944,-1.4963,-1.4972,-1.4991,-1.502,-1.4986,-1.4987,-1.4992,-1.5063,-1.5065,-1.5071,-1.5022,-1.5023,-1.5023,-1.5061,0,-1.4682,-1.4737,-1.4752,-1.4799,-1.4827,-1.4834,-1.4861,-1.4885,-1.4899,-1.4925,-1.494,-1.4969,-1.4964,-1.4976,-1.4995,-1.5012,-1.5034,-1.501,-1.5046,-1.5047,-1.5039,-1.5078,-1.508,-1.5114,-1.5066,-1.5067,-1.5067,0,-1.4731,-1.4759,-1.4809,-1.484,-1.4852,-1.4876,-1.4906,-1.4931,-1.4957,-1.4967,-1.4988,-1.4995,-1.5026,-1.5014,-1.5058,-1.504,-1.5056,-1.5066,-1.5068,-1.5073,-1.5059,-1.5084,-1.5126,-1.5131,-1.5075,-1.5075,-1.5074,0,-1.475,-1.4799,-1.4836,-1.485,-1.4887,-1.4903,-1.4919,-1.4945,-1.4963,-1.499,-1.5002,-1.5031,-1.5048,-1.507,-1.5085,-1.5075,-1.5127,-1.5116,-1.5135,-1.5135,-1.5147,-1.5146,-1.5192,-1.5155,-1.5155,-1.5155,-1.5155,0,-1.4789,-1.4819,-1.4845,-1.4867,-1.4901,-1.4917,-1.495,-1.4966,-1.4989,-1.5014,-1.5021,-1.5044,-1.5062,-1.5088,-1.5099,-1.5134,-1.5141,-1.5149,-1.5152,-1.5149,-1.5148,-1.5159,-1.5158,-1.5157,-1.5156,-1.5156,-1.5156,0,-1.4816,-1.4834,-1.4875,-1.4906,-1.4915,-1.4938,-1.4965,-1.4986,-1.5001,-1.5033,-1.5041,-1.5063,-1.5094,-1.5111,-1.5148,-1.5156,-1.5194,-1.5196,-1.5186,-1.5187,-1.5205,-1.5203,-1.5261,-1.527,-1.5227,-1.5227,-1.5227,0,-1.484,-1.4864,-1.4898,-1.4915,-1.4932,-1.496,-1.4979,-1.4995,-1.5014,-1.5046,-1.5064,-1.5095,-1.512,-1.5168,-1.5188,-1.5216,-1.5219,-1.5237,-1.5223,-1.5219,-1.522,-1.5218,-1.5221,-1.524,-1.524,-1.524,-1.5241,0,-1.4881,-1.4888,-1.4916,-1.4947,-1.4969,-1.4994,-1.5018,-1.5032,-1.5052,-1.5073,-1.5104,-1.5124,-1.5163,-1.5193,-1.5224,-1.5239,-1.5243,-1.5245,-1.5251,-1.5248,-1.5242,-1.5246,-1.5193,-1.5244,-1.5243,-1.5243,-1.5243,-1.5243,-1.4907,-1.4929,-1.4956,-1.4986,-1.5006,-1.5029,-1.5051,-1.5068,-1.5095,-1.5128,-1.5135,-1.5168,-1.5194,-1.5235,-1.5251,-1.5277,-1.5273,-1.5282,-1.5284,-1.5286,-1.5287,-1.5237,-1.5282,-1.5282,-1.5282,-1.5282,-1.5282,0,-1.4949,-1.4967,-1.4994,-1.5028,-1.5052,-1.5054,-1.5081,-1.51,-1.5129,-1.5153,-1.5178,-1.5214,-1.5243,-1.5265,-1.5295,-1.5311,-1.5313,-1.5318,-1.5317,-1.5321,-1.5289,-1.5281,-1.5316,-1.5316,-1.5316,-1.5316,-1.5316,-1.5316,-1.4973,-1.501,-1.502,-1.5066,-1.5084,-1.5117,-1.5132,-1.5153,-1.5171,-1.5211,-1.5236,-1.525,-1.5273,-1.5304,-1.5331,-1.5336,-1.5347,-1.5352,-1.5357,-1.5327,-1.5323,-1.532,-1.5313,-1.5354,-1.5354,-1.5388,-1.5388,-1.5388]},{"header":{"parameterUnit":"m.s-1","parameterCategory":1,"la1":30.2991,"la2":30.254,"lo1":-89.0895,"lo2":-89.0444,"dy":0.0017,"dx":0.0017,"nx":28,"ny":28,"refTime":"2025-09-07T21:00:00:Z","depth":0,"parameterNumber":3,"parameterNumberName":"V-component_of_WINDS"},"data":[0,0,0,0,0,0,0,0,0,0,0,0,0,0,0,0,0,0,0,0,0,0,0,0,0,0,0,0,0,0,0,0,0,0,0,0,0,0,0,0,0,0,0,0,0,0,0,0,0,0,0,0,0,0,0,0,0,0,-4.0049,-4.0049,0,-4.0094,-4.0095,-4.0095,-4.0096,-4.0096,-4.0095,-4.0095,-4.0136,-4.0138,-4.014,0,0,0,0,0,0,0,0,0,0,0,0,0,-3.9959,-3.9961,-4.0048,-4.0049,-4.005,-4.0094,-4.0095,-4.0095,-4.0096,-4.0096,-4.0095,-4.0095,-4.0136,-4.0138,-4.014,0,0,0,0,0,0,0,0,0,0,0,0,0,-4.0,-3.9961,-4.0048,-4.0056,-4.0057,-4.0094,-4.0095,-4.0095,-4.0097,-4.0096,-4.0095,-4.0094,-4.0135,-4.0138,-4.014,-4.0171,0,0,-4.0147,-4.0148,0,0,0,0,0,0,0,0,-3.9998,-4.0004,-4.0054,-4.0055,-4.0057,-4.0089,-4.0078,-4.0121,-4.0097,-4.0081,-4.0095,-4.0094,-4.0121,-4.0124,-4.0135,-4.0173,-4.0175,-4.0148,-4.0149,-4.015,-4.0151,0,0,0,0,0,0,0,-3.9995,-4.0002,-4.0066,-4.0055,-4.0056,-4.0056,-4.0061,-4.0086,-4.0105,-4.0083,-4.0083,-4.0088,-4.0121,-4.0132,-4.0136,-4.0176,-4.0148,-4.015,-4.0151,-4.0152,-4.0245,-4.0245,0,0,0,0,0,0,-3.9992,-3.9999,-4.0065,-4.0068,-4.0025,-4.0058,-4.0063,-4.0079,-4.0105,-4.0108,-4.0089,-4.0088,-4.0129,-4.0133,-4.0137,-4.0178,-4.015,-4.0152,-4.0154,-4.0244,-4.0245,-4.0246,0,0,0,0,0,0,-3.999,-3.9997,-4.0063,-4.0034,-4.0042,-4.006,-4.0078,-4.0081,-4.0092,-4.011,-4.0113,-4.0097,-4.0128,-4.0134,-4.0164,-4.0179,-4.0153,-4.0156,-4.0242,-4.0244,-4.0245,-4.0257,0,0,0,0,0,0,-3.9987,-3.9997,-4.0009,-4.0034,-4.0044,-4.009,-4.0079,-4.0082,-4.0096,-4.0096,-4.0118,-4.0121,-4.0128,-4.016,-4.0166,-4.0182,-4.0158,-4.0241,-4.0243,-4.0245,-4.0256,-4.0259,-4.0262,0,0,0,0,0,-3.9984,-4.0009,-4.001,-4.0018,-4.006,-4.0091,-4.0096,-4.0105,-4.0097,-4.011,-4.0122,-4.012,-4.0176,-4.0163,-4.017,-4.0186,-4.024,-4.0243,-4.0245,-4.0254,-4.0258,-4.0262,0,0,0,0,0,0,-3.9983,-4.0012,-4.0014,-4.0048,-4.0067,-4.0091,-4.0107,-4.0109,-4.0129,-4.0128,-4.0136,-4.0141,-4.0172,-4.0182,-4.0167,-4.0219,-4.0207,-4.0211,-4.0212,-4.0216,-4.0219,-4.0217,-4.016,0,0,0,0,0,-3.9987,-4.0011,-4.0035,-4.0063,-4.0073,-4.0088,-4.0102,-4.0108,-4.0127,-4.0135,-4.0149,-4.0167,-4.0189,-4.0202,-4.0223,-4.0257,-4.0262,-4.0272,-4.0275,-4.0277,-4.0281,-4.0301,-4.0306,-4.0253,-4.0253,-4.0253,0,0,-3.9995,-4.0015,-4.0029,-4.0063,-4.0079,-4.0103,-4.0095,-4.012,-4.0138,-4.0138,-4.0169,-4.0179,-4.02,-4.0233,-4.0247,-4.0242,-4.0297,-4.028,-4.0282,-4.0284,-4.0304,-4.0309,-4.0314,-4.0255,-4.0255,-4.0254,0,0,-4.0023,-4.004,-4.0066,-4.0083,-4.0108,-4.0118,-4.0125,-4.0149,-4.0157,-4.0188,-4.019,-4.021,-4.0247,-4.0262,-4.0275,-4.0311,-4.0311,-4.0318,-4.0334,-4.0355,-4.0359,-4.0363,-4.0377,-4.0382,-4.0321,-4.0321,-4.0321,0,-4.003,-4.0068,-4.0079,-4.0106,-4.0121,-4.0125,-4.0152,-4.0167,-4.0196,-4.0206,-4.02,-4.0249,-4.0262,-4.03,-4.0309,-4.0318,-4.0326,-4.0316,-4.0357,-4.0361,-4.0365,-4.0379,-4.0385,-4.0322,-4.0321,-4.0321,-4.0321,0,-4.0076,-4.0102,-4.012,-4.0152,-4.017,-4.0196,-4.0211,-4.0227,-4.0231,-4.0242,-4.0275,-4.0292,-4.0318,-4.0326,-4.0329,-4.0365,-4.0361,-4.0356,-4.0344,-4.0371,-4.0385,-4.039,-4.0323,-4.0323,-4.0322,-4.0322,0,0,-4.0104,-4.0144,-4.015,-4.0166,-4.0195,-4.0215,-4.0241,-4.0269,-4.0283,-4.0303,-4.0327,-4.0359,-4.0355,-4.037,-4.0375,-4.0392,-4.0423,-4.0385,-4.0386,-4.0393,-4.0465,-4.047,-4.0476,-4.0422,-4.0423,-4.0424,-4.0464,0,-4.0136,-4.0187,-4.0199,-4.0241,-4.0267,-4.0271,-4.0295,-4.0314,-4.0326,-4.0348,-4.036,-4.0384,-4.0376,-4.0385,-4.0403,-4.0415,-4.0438,-4.0412,-4.0444,-4.0445,-4.0441,-4.0483,-4.0488,-4.0525,-4.0469,-4.047,-4.0471,0,-4.0181,-4.0206,-4.0252,-4.028,-4.0291,-4.0312,-4.034,-4.0361,-4.0384,-4.0391,-4.0409,-4.0413,-4.044,-4.0427,-4.0465,-4.0448,-4.0462,-4.047,-4.0472,-4.0476,-4.0461,-4.0491,-4.0537,-4.0543,-4.0479,-4.0478,-4.0478,0,-4.0199,-4.0244,-4.0278,-4.0291,-4.0324,-4.0339,-4.0353,-4.0376,-4.0392,-4.0415,-4.0427,-4.0451,-4.0466,-4.0485,-4.0495,-4.0484,-4.0534,-4.0521,-4.0541,-4.0541,-4.0552,-4.0552,-4.0604,-4.0558,-4.0558,-4.0558,-4.0558,0,-4.0235,-4.0264,-4.0288,-4.0309,-4.0341,-4.0354,-4.0385,-4.0399,-4.0419,-4.0443,-4.0447,-4.0469,-4.0481,-4.0504,-4.0512,-4.0544,-4.055,-4.0556,-4.0559,-4.0557,-4.0557,-4.0567,-4.0566,-4.0559,-4.0559,-4.0559,-4.0559,0,-4.0262,-4.0279,-4.0317,-4.0346,-4.0354,-4.0377,-4.0402,-4.0422,-4.0435,-4.0464,-4.0472,-4.0491,-4.0519,-4.0531,-4.0564,-4.057,-4.0608,-4.0607,-4.0601,-4.0602,-4.0623,-4.0622,-4.0684,-4.0694,-4.0641,-4.0641,-4.0641,0,-4.0284,-4.0307,-4.034,-4.0358,-4.0373,-4.04,-4.0419,-4.0432,-4.0451,-4.048,-4.0497,-4.0526,-4.055,-4.0594,-4.061,-4.0636,-4.0637,-4.0657,-4.064,-4.0639,-4.0639,-4.0639,-4.0642,-4.066,-4.0661,-4.0661,-4.0662,0,-4.0324,-4.0332,-4.0359,-4.039,-4.0412,-4.0436,-4.0459,-4.0473,-4.049,-4.0511,-4.0541,-4.056,-4.0596,-4.0625,-4.0652,-4.0665,-4.0667,-4.0667,-4.0673,-4.0673,-4.067,-4.0674,-4.0611,-4.0665,-4.0665,-4.0665,-4.0664,-4.0664,-4.035,-4.0372,-4.04,-4.043,-4.045,-4.0473,-4.0495,-4.0511,-4.0537,-4.057,-4.0575,-4.0608,-4.0631,-4.0669,-4.0684,-4.0709,-4.0704,-4.0713,-4.0715,-4.0718,-4.072,-4.0665,-4.0713,-4.0713,-4.0713,-4.0713,-4.0713,0,-4.0392,-4.0411,-4.0439,-4.0474,-4.0498,-4.0499,-4.0526,-4.0546,-4.0575,-4.0598,-4.0623,-4.0658,-4.0687,-4.0706,-4.0735,-4.0751,-4.0753,-4.0758,-4.0758,-4.0762,-4.0722,-4.0715,-4.0757,-4.0757,-4.0757,-4.0757,-4.0757,-4.0757,-4.0416,-4.0454,-4.0466,-4.0513,-4.0531,-4.0566,-4.0581,-4.0602,-4.0621,-4.0662,-4.0687,-4.07,-4.0721,-4.0752,-4.0778,-4.0783,-4.0794,-4.0801,-4.0805,-4.0768,-4.0764,-4.076,-4.0753,-4.0802,-4.0803,-4.0843,-4.0843,-4.0844]}]]